Location: Gorze? G�rny
(49.8500°N, 19.5000°E)
Time: 11:18:22
(UTC+00:00)

Cosmos 489 Rocket - Pass Details

Date: 13 May 2021
Orbit: 952 x 983 km, 74.0° (Epoch: 22 June)

Event Time Altitude Azimuth Distance (km) Brightness Sun altitude
Rises 21:02:38 0° 336° (NNW) 3,646 9.2 -18.3°
Reaches altitude 10° 21:05:10 10° 337° (NNW) 2,699 8.1 -18.5°
Maximum altitude 21:11:26 83° 66° (ENE) 975 4.4 -18.9°
Enters shadow 21:14:31 32° 152° (SSE) 1,584 5.0 -19.1°
